This is the latest recevied weather packets stored in our database for station/object K6CEG. If no packets are shown the sender has not sent any weather packets the latest 10 day(s).
| Time | Temp. | Humidity | Pressure | Rain* | Wind** | Luminosity | Snow |
|---|---|---|---|---|---|---|---|
| 1788640821 | 32.78° C | 22% | 1015.2 hPa | 0 mm | - | 611 W/m² | - |
| 1788640521 | 33.33° C | 22% | 1015.4 hPa | 0 mm | - | 642 W/m² | - |
| 1788640216 | 32.78° C | 23% | 1015.3 hPa | 0 mm | - | 675 W/m² | - |
| 1788639911 | 32.78° C | 23% | 1015.3 hPa | 0 mm | - | 676 W/m² | - |
| 1788639607 | 32.78° C | 23% | 1015.3 hPa | 0 mm | - | 669 W/m² | - |
| 1788639302 | 32.78° C | 23% | 1015.4 hPa | 0 mm | - | 675 W/m² | - |
| 1788639001 | 32.78° C | 23% | 1015.7 hPa | 0 mm | - | 676 W/m² | - |
| 1788638697 | 32.78° C | 24% | 1015.5 hPa | 0 mm | - | 677 W/m² | - |
| 1788638395 | 32.78° C | 24% | 1015.7 hPa | 0 mm | - | 665 W/m² | - |
| 1788638091 | 32.22° C | 25% | 1015.6 hPa | 0 mm | - | 648 W/m² | - |
| 1788637786 | 32.22° C | 25% | 1015.7 hPa | 0 mm | - | 663 W/m² | - |
| 1788637486 | 31.67° C | 24% | 1015.8 hPa | 0 mm | - | 661 W/m² | - |
| 1788637181 | 32.22° C | 23% | 1015.6 hPa | 0 mm | - | 697 W/m² | - |
| 1788636881 | 32.22° C | 24% | 1015.8 hPa | 0 mm | - | 678 W/m² | - |
| 1788636576 | 32.22° C | 22% | 1015.9 hPa | 0 mm | - | 693 W/m² | - |
| 1788636271 | 31.11° C | 24% | 1015.8 hPa | 0 mm | - | 719 W/m² | - |
| 1788635966 | 31.67° C | 24% | 1016.1 hPa | 0 mm | - | 752 W/m² | - |
| 1788635666 | 31.67° C | 24% | 1016.1 hPa | 0 mm | - | 738 W/m² | - |
| 1788635360 | 31.67° C | 25% | 1016.2 hPa | 0 mm | - | 720 W/m² | - |
| 1788635057 | 31.67° C | 25% | 1016.2 hPa | 0 mm | - | 730 W/m² | - |
| 1788634756 | 30.56° C | 26% | 1016.5 hPa | 0 mm | - | 727 W/m² | - |
| 1788634452 | 31.11° C | 27% | 1016.4 hPa | 0 mm | - | 747 W/m² | - |
| 1788634151 | 31.67° C | 27% | 1016.3 hPa | 0 mm | - | 780 W/m² | - |
| 1788633851 | 31.11° C | 26% | 1016.4 hPa | 0 mm | - | 746 W/m² | - |
| 1788633549 | 30.56° C | 29% | 1016.6 hPa | 0 mm | - | 766 W/m² | - |
* Rain latest hour (hover to see other rain measurements)
** Current wind speed in m/s (hover to see current wind gust speed)